Simultaneous Nadir Overpasses (SNOs) Predictions

Prediction of SNOs between GOES-16 and METOP-B Satellite Orbit:

Table of predicted SNOs for the next 14.0 days since TLE Epoch: 11/28/2020
Index Date Time (GOES-16) GOES-16 Lat,Lon METOP-B Lat,Lon Distance(km) Time Diff (sec)
1 11/29/2020 02:46:12 -0.01, -75.18 -0.77, -78.54 383.66 80
2 11/30/2020 02:22:54 -0.00, -75.18 0.38, -73.55 186.25 80
3 12/01/2020 14:41:46 -0.00, -75.23 0.64, -78.11 328.56 80
4 12/02/2020 14:23:47 -0.01, -75.24 -0.45, -73.12 241.60 80
5 12/04/2020 02:42:47 0.01, -75.22 -0.56, -77.71 283.92 80
6 12/05/2020 02:19:28 0.01, -75.23 0.59, -72.73 286.47 80
7 12/06/2020 14:38:21 -0.01, -75.29 0.43, -77.29 227.54 80
8 12/07/2020 14:20:21 -0.00, -75.30 -0.67, -72.29 343.33 80
9 12/09/2020 02:39:22 0.01, -75.30 -0.35, -76.88 181.04 80
10 12/10/2020 02:16:02 0.00, -75.31 0.75, -71.89 390.01 80
11 12/11/2020 14:34:54 -0.01, -75.37 0.26, -76.45 123.18 80
